Back to catalog

DMSP 5D-2 F13 DEB

AliveSSO
NORAD 40609·DEBRIS·🇺🇸 United States

Launched Mar 24, 1995 from Vandenberg Space Force Base

Loading…

Next Passes (next 24 hours)

TLE

FreshSource: Space-Track

Epoch: Sep 12, 2026, 09:04 UTC

1 40609U 95015FG  26255.37809535  .00003130  00000-0  91055-3 0  9999
2 40609  98.6773 301.1585 0004950 112.8867 247.2846 14.44957924592430

Track DMSP 5D-2 F13 DEB in real time with AllMySat

Download on the App Store